Home > Time Zones > World Clock > Weather > Ghana > Accra > Past weeks

Flag for Ghana Weather past 2 weeks in Accra, Ghana

Now
75 °F

Passing clouds.


Feels Like: 74 °F
Forecast: N/A
Wind: 15 mph from Southwest

Location: Accra Airport

Current Time: Aug 30, 2014 at 10:25:36 PM

Latest Report: Aug 30, 2014 at 9:53 PM


Visibility: N/A

Pressure: 29.92 "Hg

Humidity: 94%

Dew point: 73 °F

Location of AccraLocation

Historic Weather in Accra — Graph

°F

Accra temperature yesterday

Maximum temperature yesterday: 81 °F (at 1:51 PM)
Minimum temperature yesterday: 75 °F (at 12:00 AM)
Average temperature yesterday: 77 °F

Past Weeks' High & Low Weather Summary

 TemperatureHumidityPressure
High84 °F (Aug 24, 12:00 PM)100% (Aug 21, 5:54 AM)30.04 "Hg (Aug 21, 5:54 AM)
Low70 °F (Aug 26, 12:00 PM)66% (Aug 24, 12:00 PM)29.83 "Hg (Aug 29, 5:52 PM)
Average76 °F87%29.94 "Hg
* Reported Aug 15 7:00 PM — Aug 30 7:54 PM, Accra, Weather by CustomWeather, © 2014

Note: Actual official high and low records may vary slightly from our data, if they occured in-between our weather recording intervals... More about our weather records

Advertising

Accra weather history for previous 24 hours

 ConditionsComfort  
Time TempWeatherWind HumidityBarometerVisibility
7:54 PM
Aug 30
77 °FMostly cloudy.13 mph89%29.92 "HgN/A
6:54 PM75 °FPassing clouds.13 mph94%29.92 "HgN/A
5:53 PM77 °FScattered clouds.15 mph83%29.89 "HgN/A
4:53 PM79 °FScattered clouds.15 mph79%29.89 "HgN/A
3:54 PM81 °FPartly sunny.16 mph79%29.89 "HgN/A
2:53 PM81 °FBroken clouds.17 mph79%29.89 "HgN/A
1:53 PM81 °FPartly sunny.17 mph79%29.89 "HgN/A
12:55 PM81 °FMostly cloudy.18 mph79%29.92 "HgN/A
12:00 PM81 °FMostly cloudy.18 mph79%29.95 "HgN/A
11:00 AM81 °FMostly cloudy.18 mph74%29.98 "HgN/A
10:00 AM79 °FBroken clouds.17 mph84%29.98 "HgN/A
8:00 AM75 °FMostly cloudy.14 mph94%29.95 "HgN/A
6:51 AM75 °FMostly cloudy.14 mph94%29.92 "HgN/A
6:00 AM75 °FMostly cloudy.12 mph94%29.92 "HgN/A
4:51 AM75 °FMostly cloudy.12 mph94%29.92 "HgN/A
3:59 AM75 °FMostly cloudy.12 mph94%29.89 "HgN/A
2:52 AM75 °FMostly cloudy.13 mph94%29.89 "HgN/A
1:52 AM75 °FMostly cloudy.13 mph94%29.92 "HgN/A
1:00 AM75 °FMostly cloudy.13 mph94%29.92 "HgN/A
12:00 AM75 °FLow clouds.13 mph94%29.95 "HgN/A
11:00 PM
Aug 29
75 °FMostly cloudy.14 mph94%29.95 "HgN/A
Weather by CustomWeather, © 2014

See weather overviewHow to use our weather pages